Regional Weather Roundup
Issued by NWS Newport/Morehead, NC

Current Version | Previous Version | Text Only | Print | Product List | Glossary Off
Versions: 1 2 3 4 5 6 7 8 9 10 11 12 13 14 15 16 17 18 19 20 21 22 23 24 25 26 27 28 29 30 31 32 33 34 35 36 37 38 39 40 41 42 43 44 45 46 47 48 49 50
000 ASUS42 KMHX 290125 RWRMHX WEATHER ROUNDUP FOR EASTERN NORTH CAROLINA NATIONAL WEATHER SERVICE NEWPORT/MOREHEAD CITY NC 900 PM EDT SAT MAY 28 2016 NOTE: "FAIR" INDICATES FEW OR NO CLOUDS BELOW 12,000 FEET WITH NO SIGNIFICANT WEATHER AND/OR OBSTRUCTIONS TO VISIBILITY NCZ015>017-031-032-045>047-102-103-290200- NORTH COAST CITY SKY/WX TMP DP RH WIND PRES REMARKS EDENTON NOT AVBL ELIZABETH CITY PTCLDY 73 66 78 E7 30.15S KITTY HAWK CLEAR 71 67 87 E3 30.14S MANTEO NOT AVBL $$ NCZ045>047-081-094-103-104-290200- CENTRAL COAST CITY SKY/WX TMP DP RH WIND PRES REMARKS FRISCO CLEAR 74 70 87 E6 30.13S $$ NCZ095-097-098-100-101-290200- SOUTHERN COAST CITY SKY/WX TMP DP RH WIND PRES REMARKS BEAUFORT PTCLDY 76 72 87 E3 30.12R CEDAR ISLAND NOT AVBL JACKSONVILLE CLEAR 77 69 76 E7 30.10S PINEY ISLAND PTCLDY N/A N/A N/A E8 30.12S WILMINGTON PTCLDY 75 70 84 E10 30.09F $$ NCZ011>013-027>030-043-044-078>080-089-090>093-098-290200- COASTAL PLAIN CITY SKY/WX TMP DP RH WIND PRES REMARKS AHOSKIE PTCLDY 73 63 68 SE5 30.15R CLINTON CLOUDY 73 68 84 CALM 30.11S ELIZABETHTOWN CLOUDY 72 70 93 CALM 30.10F GOLDSBORO PTCLDY 76 66 70 E5 30.11R GREENVILLE PTCLDY 77 68 73 SE5 30.15R HAVELOCK CLOUDY 76 69 79 NE5 30.13R KENANSVILLE PTCLDY 70 62 76 CALM 30.12S KINSTON PTCLDY 77 64 65 E6 30.13R NEW BERN CLEAR 75 69 81 E7 30.13S RICHLANDS CLOUDY 74 68 81 E3 30.12R ROCKY MOUNT CLOUDY 78 65 63 CALM 30.13R WASHINGTON CLEAR 74 69 85 E5 30.14R WHITEVILLE MOCLDY 73 67 81 CALM 30.08F $$ AMZ130-135-150-152-154-156-158-170-250-252-270-ANZ085-086-088-633-658-670-290200- MARINE OBSERVATIONS STATION/POSITION TIME TEMP WIND PRES WAVE SWELL AIR SEA DIR/SP/G HT/PER HT/PER (UTC) (F) (DEG/KT/KT) (MB) (FT/S) (FT/S) CHESAPEAKE LIGHT 0100 73 110/ 9/ 10 1022.0 64 E VA BEACH 0050 69 66 110/ 4/ 4 1021.3 3/ 8 3/ 8 DUCK 0100 1020.1 2 E DUCK 0011 68 N/A 2/ 7 OREGON INLET 0100 1020.5 13E OREGON INLT 0100 71 N/A 3/ 8 3/ 8 HATTERAS CG 0100 1019.7 DIAMOND BUOY 0050 78 78 120/ 12/ 16 1020.0 4/ 8 3/ 8 CAPE LOOKOUT 0100 75 70/ 9/ 10 1019.4 BEAUFORT LAB 0100 1019.1 30 SE NEW RVR IN 0025 75 N/A 6/ 8 27 SE WRIGHTSVLE 0108 76 74 80/ 12/ 16 1018.1 5 SE WRIGHTSVLE 0008 75 75 80/ 16/ 19 1019.2 225 S CAPE HAT 0050 76 75 120/ 16/ 17 1018.1 4/ 5 2/13 41 SE CHARLESTON 0050 78 78 90/ 16/ 17 1015.0 8/ 8 5/ 8 $$

USA.gov is the U.S. government's official web portal to all federal, state and local government web resources and services.